Alphonse Airport


Codes: FSAL/
Name: Alphonse Airport
City: Alphonse Island
Country: Seychelles
Elevation: 10 ft.
Wikipedia:

Photos at Alphonse Airport


   Photos courtesy of SpottingLog. You can add your own sightings and photos by signing up for a free trial today.



No photos found.

Weather at Alphonse Airport


Time (UTC)DescriptionTempratureWindCloud coverageVisibilityPressureHumidity
21-Feb-2024 03:00Light Rain28°C11 mph, W100%10000m1009hPa80%
21-Feb-2024 06:00Light Rain28°C11 mph, W95%10000m1011hPa78%
21-Feb-2024 09:00Light Rain28°C11 mph, NW74%10000m1009hPa78%
21-Feb-2024 12:00Light Rain28°C9 mph, NW86%10000m1009hPa77%
21-Feb-2024 15:00Light Rain29°C7 mph, NW100%10000m1011hPa74%
21-Feb-2024 18:00Light Rain29°C7 mph, NW100%10000m1012hPa76%
21-Feb-2024 21:00Light Rain28°C7 mph, NW100%10000m1010hPa79%
22-Feb-2024 00:00Light Rain28°C7 mph, NW100%10000m1010hPa75%
22-Feb-2024 03:00Overcast Clouds28°C7 mph, NW100%10000m1011hPa75%
22-Feb-2024 06:00Light Rain28°C4 mph, N99%10000m1012hPa77%
22-Feb-2024 09:00Light Rain29°C9 mph, N100%10000m1011hPa77%
22-Feb-2024 12:00Overcast Clouds29°C9 mph, N100%10000m1009hPa75%
22-Feb-2024 15:00Overcast Clouds29°C9 mph, NE100%10000m1011hPa73%
22-Feb-2024 18:00Overcast Clouds29°C7 mph, NE100%10000m1012hPa74%
22-Feb-2024 21:00Overcast Clouds29°C7 mph, NE100%10000m1010hPa75%
23-Feb-2024 00:00Light Rain28°C9 mph, NE100%10000m1010hPa80%
23-Feb-2024 03:00Light Rain28°C9 mph, NE100%10000m1012hPa78%
23-Feb-2024 06:00Moderate Rain28°C9 mph, NE100%10000m1013hPa78%
23-Feb-2024 09:00Light Rain29°C4 mph, NE100%10000m1011hPa68%
23-Feb-2024 12:00Overcast Clouds29°C4 mph, E100%10000m1010hPa66%
23-Feb-2024 15:00Overcast Clouds29°C7 mph, E100%10000m1011hPa68%
23-Feb-2024 18:00Overcast Clouds29°C7 mph, SE100%10000m1012hPa71%
23-Feb-2024 21:00Overcast Clouds29°C7 mph, SE100%10000m1011hPa73%
24-Feb-2024 00:00Overcast Clouds29°C7 mph, SE100%10000m1010hPa74%
24-Feb-2024 03:00Overcast Clouds28°C9 mph, SE100%10000m1012hPa76%
24-Feb-2024 06:00Overcast Clouds29°C9 mph, SE100%10000m1013hPa75%
24-Feb-2024 09:00Overcast Clouds29°C7 mph, SE100%10000m1011hPa74%
24-Feb-2024 12:00Overcast Clouds29°C7 mph, S100%10000m1010hPa74%
24-Feb-2024 15:00Overcast Clouds29°C7 mph, SE100%10000m1011hPa74%
24-Feb-2024 18:00Overcast Clouds29°C7 mph, SE100%10000m1012hPa75%
24-Feb-2024 21:00Light Rain28°C4 mph, SE100%10000m1011hPa76%
25-Feb-2024 00:00Light Rain28°C4 mph, SE96%10000m1010hPa74%
25-Feb-2024 03:00Broken Clouds28°C7 mph, S79%10000m1011hPa73%
25-Feb-2024 06:00Overcast Clouds29°C7 mph, S90%10000m1012hPa73%
25-Feb-2024 09:00Overcast Clouds29°C7 mph, S100%10000m1010hPa72%
25-Feb-2024 12:00Overcast Clouds29°C4 mph, SW100%10000m1009hPa71%
25-Feb-2024 15:00Light Rain28°C4 mph, SW95%10000m1010hPa76%
25-Feb-2024 18:00Light Rain28°C4 mph, SW98%10000m1011hPa75%
25-Feb-2024 21:00Light Rain28°C7 mph, SW100%10000m1010hPa77%
26-Feb-2024 00:00Moderate Rain28°C4 mph, SW100%8653m1009hPa79%